{"data":{"norad_id":60585,"intl_designator":"2024-150C","name":"STARLINK-32130","alt_names":[],"object_type":"PAYLOAD","status":"ACTIVE","operator":null,"country":"US","launch_date":"2024-08-20","launch_site_code":"AFETR","launch_vehicle":null,"mission":null,"orbit_class":"UNKNOWN","rcs_meters":null,"size_class":null,"mass_kg":null,"dimensions":null,"purposes":["comms"],"wikipedia_slug":null,"has_3d_model":false,"image_url":null,"decayed_at":null,"tle_current":{"epoch":"2026-05-24T21:11:52.392192Z","epoch_age_seconds":82353,"freshness":"FRESH","line1":"1 60585U 24150C   26144.88324528  .00021702  00000+0  74492-3 0  9993","line2":"2 60585  53.1622 313.3505 0001742  85.1801 274.9398 15.30102777 99623","mean_motion":15.30102777,"eccentricity":0.0001742,"inclination_deg":53.1622,"raan_deg":313.3505,"arg_perigee_deg":85.1801,"mean_anomaly_deg":274.9398,"bstar":0.00074492,"rev_number":9962,"period_min":94.111325176688,"perigee_km":474.31147064182,"apogee_km":476.69927964532,"semimajor_km":6853.6423751436,"source":"CELESTRAK","updated_at":"2026-05-25T13:38:19.278362Z"}}}